Dublin, Ireland

8:31 PM IST on August 17, 2017 (GMT +0100)
Dublin International

Weather History for EIDW - October, 2012

Change the Weather History Date:

Thursday, October 11, 2012

  Actual Average Record
Temperature  
Mean Temperature 50 °F -  
Max Temperature 55 °F 54 °F 66 °F (2001)
Min Temperature 44 °F 44 °F 36 °F (2014)
Degree Days  
Heating Degree Days 14    
Moisture  
Dew Point 50 °F    
Average Humidity 93    
Maximum Humidity 100    
Minimum Humidity 79    
Precipitation  
Precipitation 0.35 in 0.09 in - ()
Sea Level Pressure  
Sea Level Pressure 29.57 in    
Wind  
Wind Speed 13 mph ()    
Max Wind Speed 21 mph    
Max Gust Speed 32 mph    
Visibility 5.1 miles    
Events Rain    
Averages and records for this station are not official NWS values.
T = Trace of Precipitation, MM = Missing Value Source: Averaged Metar Reports

Daily Weather History Graph

Daily Weather History Graph

Search for Another Location

Airport or City:

Trip Planner

Search our weather history database for the weather conditions in past years. The results will help you decide how hot, cold, wet, or windy it might be!

Date:

Astronomy

Oct. 11, 2012 Rise Set
Actual Time 7:45 AM IST 6:37 PM IST
Civil Twilight 7:10 AM IST 7:12 PM IST
Nautical Twilight 6:29 AM IST 7:52 PM IST
Astronomical Twilight 5:48 AM IST 8:33 PM IST
Moon 2:33 AM IST (10/11) 4:35 PM IST (10/11)
Length of Visible Light 12h 01m
Length of Day
10h 51m
Waning Crescent, 20% of the Moon is Illuminated
Oct 11
Waning Crescent
Oct 15
New
Oct 22
First Quarter
Oct 29
Full
Nov 7
Last Quarter

Hourly Weather History & Observations

Time (IST) Temp. Windchill Dew Point Humidity Pressure Visibility Wind Dir Wind Speed Gust Speed Precip Events Conditions
12:00 AM 55.4 °F - 53.6 °F 94% 29.68 in 3.7 mi SSE 15.0 mph - N/A   Light Drizzle
12:30 AM 55.4 °F - 53.6 °F 94% 29.68 in 3.7 mi SSE 16.1 mph - N/A   Light Drizzle
1:00 AM 55 °F - 54 °F 93% 29.68 in 4 mi SSE 15.7 mph - - Rain Light Drizzle
1:00 AM 55.4 °F - 53.6 °F 94% 29.65 in 3.7 mi SSE 17.3 mph - N/A   Light Drizzle
1:30 AM 55.4 °F - 53.6 °F 94% 29.65 in 3.7 mi SSE 11.5 mph - N/A   Light Drizzle
2:00 AM 55.4 °F - 53.6 °F 94% 29.65 in 3.7 mi SE 11.5 mph - N/A Rain Light Rain
2:30 AM 55.4 °F - 53.6 °F 94% 29.62 in 3.7 mi SSE 13.8 mph - N/A Rain Light Rain
3:00 AM 53.6 °F - 53.6 °F 100% 29.62 in 3.7 mi SSE 12.7 mph - N/A Rain Light Rain
3:30 AM 53.6 °F - 53.6 °F 100% 29.62 in 3.7 mi SSE 16.1 mph - N/A Rain Light Rain
4:00 AM 53.6 °F - 51.8 °F 94% 29.59 in 3.7 mi SSE 13.8 mph - N/A Rain Light Rain
4:30 AM 53.6 °F - 53.6 °F 100% 29.59 in 3.7 mi SSE 16.1 mph - N/A Rain Light Rain
5:00 AM 53.6 °F - 53.6 °F 100% 29.59 in 3.7 mi SSE 13.8 mph - N/A Rain Light Rain
5:30 AM 53.6 °F - 53.6 °F 100% 29.56 in 3.1 mi SSE 11.5 mph - N/A Rain Light Rain
6:00 AM 53.6 °F - 53.6 °F 100% 29.56 in 3.1 mi SE 10.4 mph - N/A Rain Light Rain
6:30 AM 53.6 °F - 53.6 °F 100% 29.56 in 3.1 mi SSE 13.8 mph - N/A Rain Light Rain
7:00 AM 54 °F - 53 °F 96% 29.56 in 4 mi SSE 13.4 mph - - Rain Light Rain
7:00 AM 53.6 °F - 53.6 °F 100% 29.53 in 3.7 mi SSE 12.7 mph - N/A Rain Light Rain
7:30 AM 53.6 °F - 53.6 °F 100% 29.53 in 3.1 mi SE 13.8 mph - N/A Rain Light Rain
8:00 AM 53.6 °F - 53.6 °F 100% 29.53 in 3.1 mi SE 15.0 mph - N/A Rain Light Rain
8:30 AM 53.6 °F - 53.6 °F 100% 29.53 in 3.1 mi SE 12.7 mph - N/A   Light Drizzle
9:00 AM 53.6 °F - 53.6 °F 100% 29.53 in 3.7 mi SE 10.4 mph - N/A   Light Drizzle
9:30 AM 53.6 °F - 53.6 °F 100% 29.53 in 3.1 mi SE 4.6 mph - N/A   Light Drizzle
10:00 AM 53.6 °F - 53.6 °F 100% 29.50 in - SE 11.5 mph - N/A Rain Light Rain
10:30 AM 53.6 °F - 53.6 °F 100% 29.50 in - SE 9.2 mph - N/A Rain Light Rain
11:00 AM 55.4 °F - 53.6 °F 94% 29.50 in - SE 6.9 mph - N/A Rain Light Rain
11:30 AM 55.4 °F - 53.6 °F 94% 29.50 in 1.9 mi SE 4.6 mph - N/A Rain Light Rain
12:00 PM 55.4 °F - 53.6 °F 94% 29.50 in 1.9 mi WNW 4.6 mph - N/A Rain Light Rain
12:30 PM 55.4 °F - 55.4 °F 100% 29.47 in 5.0 mi WNW 6.9 mph - N/A Rain Light Rain
1:00 PM 54 °F - 53 °F 94% 29.50 in 7 mi NW 17.9 mph - - Rain Light Rain
1:00 PM 53.6 °F - 53.6 °F 100% 29.47 in 6.2 mi WNW 17.3 mph - N/A Rain Light Rain
1:30 PM 53.6 °F - 51.8 °F 94% 29.50 in 6.2 mi NW 17.3 mph - N/A Rain Light Rain
2:00 PM 51.8 °F - 50.0 °F 94% 29.50 in 6.2 mi NW 20.7 mph - N/A Rain Light Rain
2:30 PM 51.8 °F - 50.0 °F 94% 29.50 in 6.2 mi NW 20.7 mph - N/A Rain Light Rain
3:00 PM 51.8 °F - 50.0 °F 94% 29.50 in 6.2 mi NW 19.6 mph - N/A Rain Light Rain
3:30 PM 51.8 °F - 50.0 °F 94% 29.50 in 6.2 mi NW 18.4 mph - N/A   Mostly Cloudy
4:00 PM 51.8 °F - 48.2 °F 88% 29.53 in 6.2 mi NW 18.4 mph 32.2 mph N/A   Mostly Cloudy
4:30 PM 50.0 °F - 48.2 °F 94% 29.53 in 6.2 mi NW 17.3 mph 28.8 mph N/A   Mostly Cloudy
5:00 PM 50.0 °F - 46.4 °F 87% 29.53 in 6.2 mi NW 19.6 mph - N/A   Mostly Cloudy
5:30 PM 50.0 °F - 46.4 °F 87% 29.56 in 6.2 mi NW 18.4 mph - N/A   Mostly Cloudy
6:00 PM 50.0 °F - 46.4 °F 87% 29.56 in 6.2 mi WNW 17.3 mph - N/A   Mostly Cloudy
6:30 PM 48.2 °F - 46.4 °F 93% 29.56 in 6.2 mi NW 17.3 mph - N/A Rain Light Rain Showers
7:00 PM 49 °F - 44 °F 79% 29.60 in 19 mi WNW 20.1 mph - - Rain Light Rain Showers
7:00 PM 48.2 °F - 44.6 °F 87% 29.56 in 6.2 mi WNW 19.6 mph - N/A   Mostly Cloudy
7:30 PM 48.2 °F - 42.8 °F 82% 29.59 in 6.2 mi WNW 16.1 mph - N/A   Mostly Cloudy
8:00 PM 48.2 °F - 42.8 °F 82% 29.59 in 6.2 mi WNW 17.3 mph - N/A   Mostly Cloudy
8:30 PM 48.2 °F - 42.8 °F 82% 29.59 in 6.2 mi WNW 17.3 mph - N/A   Mostly Cloudy
9:00 PM 48.2 °F - 42.8 °F 82% 29.59 in 6.2 mi WNW 17.3 mph - N/A   Mostly Cloudy
9:30 PM 48.2 °F - 42.8 °F 82% 29.62 in 6.2 mi WNW 16.1 mph - N/A   Mostly Cloudy
10:00 PM 48.2 °F - 42.8 °F 82% 29.62 in 6.2 mi WNW 17.3 mph - N/A   Mostly Cloudy
10:30 PM 46.4 °F 39.5 °F 41.0 °F 81% 29.62 in 6.2 mi WNW 17.3 mph - N/A   Mostly Cloudy
11:00 PM 46.4 °F 40.1 °F 41.0 °F 81% 29.62 in 6.2 mi WNW 15.0 mph - N/A   Mostly Cloudy
11:30 PM 44.6 °F 37.4 °F 41.0 °F 87% 29.65 in 6.2 mi West 16.1 mph - N/A   Mostly Cloudy